Hourly Data Report for April 26, 2003

TORONTO CITY
ONTARIO

43°40'00.000" N
79°24'00.000" W
112.50 m
6158355
71508
XTO

Download Data

Hourly Data (April 2003)
Hourly Data Report for April 26, 2003
TIME
LST
Temp Definition
°C
Dew Point Definition
°C
Rel Hum Definition
%
Precip. Amount Definition
mm

Wind Dir Definition
10's deg

Wind Spd Definition
km/h
Visibility Definition
km
Stn Press Definition
kPa
Hmdx Definition


Wind Chill Definition


Weather Definition


00:00 7.6 -4.0 44   LegendMM LegendMM LegendMM 99.57     LegendNANA
01:00 7.5 -3.2 47   LegendMM LegendMM LegendMM 99.53     LegendNANA
02:00 7.3 -2.3 50   LegendMM LegendMM LegendMM 99.48     LegendNANA
03:00 7.2 -1.3 55   LegendMM LegendMM LegendMM 99.43     LegendNANA
04:00 6.9 -0.9 58   LegendMM LegendMM LegendMM 99.44     LegendNANA
05:00 6.1 -1.2 59   LegendMM LegendMM LegendMM 99.49     LegendNANA
06:00 5.4 -1.2 62   LegendMM LegendMM LegendMM 99.54     LegendNANA
07:00 6.4 -0.7 60   LegendMM LegendMM LegendMM 99.59     LegendNANA
08:00 7.8 -0.8 54   LegendMM LegendMM LegendMM 99.58     LegendNANA
09:00 10.4 0.2 49   LegendMM LegendMM LegendMM 99.59     LegendNANA
10:00 12.2 0.3 44   LegendMM LegendMM LegendMM 99.59     LegendNANA
11:00 13.7 0.7 41   LegendMM LegendMM LegendMM 99.59     LegendNANA
12:00 15.2 -0.6 34   LegendMM LegendMM LegendMM 99.55     LegendNANA
13:00 13.7 0.4 40   LegendMM LegendMM LegendMM 99.55     LegendNANA
14:00 13.7 0.4 40   LegendMM LegendMM LegendMM 99.54     LegendNANA
15:00 15.1 2.0 41   LegendMM LegendMM LegendMM 99.53     LegendNANA
16:00 14.9 -4.0 27   LegendMM LegendMM LegendMM 99.55     LegendNANA
17:00 14.5 -4.4 27   LegendMM LegendMM LegendMM 99.63     LegendNANA
18:00 13.5 -7.3 23   LegendMM LegendMM LegendMM 99.67     LegendNANA
19:00 12.1 -7.9 24   LegendMM LegendMM LegendMM 99.73     LegendNANA
20:00 10.4 -7.4 28   LegendMM LegendMM LegendMM 99.81     LegendNANA
21:00 8.8 -6.3 34   LegendMM LegendMM LegendMM 99.84     LegendNANA
22:00 8.1 -3.8 43   LegendMM LegendMM LegendMM 99.86     LegendNANA
23:00 7.2 -3.2 48   LegendMM LegendMM LegendMM 99.90     LegendNANA

Notes on Data Quality.

Legend

  • E = Estimated
  • M = Missing
  • NA = Not Available*
  • [empty] = Indicates an unobserved value
Date modified: